Location: ??????
(55.2000°N, 38.3000°E)
Time: 01:43:26
(UTC+00:00)

COSMOS 2455 - Pass Details

Date: 15 November 2025
Orbit: 898 x 910 km, 67.1° (Epoch: 12 December)

Event Time Altitude Azimuth Distance (km) Brightness Sun altitude
Exits shadow 00:46:05 34° 22° (NNE) 1,467 4.1 -35.5°
Drops below altitude 10° 00:49:35 10° 40° (NE) 2,608 5.8 -35.1°
Sets 00:52:10 0° 45° (NE) 3,553 6.8 -34.7°
